Probability
0 0 0 0 0 0 0 0 0 0 0 0 0 0 0 0 0 0 0 0 0 0 0 0 0 0 0 0 0 0 0 0 0 0 0 0 0 0
0 0 0 0 0 0 0 0 0 0 0 0 0 0 0 0 0 0 0 0 0 0 0 0 0 0 0 0 0 0 0 0 0 0 0 0 0 0
0 0 0 0 0 0 0 0 0 0 0 0 0 0 0 0 0 0 0 0 0 0 0 0 0 0 0 0 0 0 0 0 0 0 0 0 0 0
0 0 0 0 0 0 0 0 0 0 0 0 0 0 0 0 0 0 0 0 0 0 0 0 0 0 0 0 0 0 0 0 0 0 0 0 0 0
0 0 0 0 0 0 0 0 0 0 0 0 0 0 0 0 0 0 0 0 0 0 0 0 0 0 0 0 0 0 0 0 0 0 0 0 0 0
0 0 0 0 0 0 0 0 0 0 0 0 0 0 0 0 0 0 0 0 0 0 0 0 0 0 0 0 0 0 0 0 0 0 0 0 0 0
0 0 0 0 0 0 0 0 0 0 0 0 0 0 0 0 0 0 0 0 0 0 0 0 0 0 0 0 0 0 0 0 0 0 0 0 0 0
0 0 0 0 0 0 0 0 0 0 0 0 0 0 0 0 0 0 0 0 0 0 0 0 0 0 0 0 0 0 0 0 0 0 0 0 0 0
0 0 0 0 0 0 0 0 0 0 0 0 0 0 0 0 0 0 0 0 0 0 0 0 0 0 0 0 0 0 0 0 0 0 0 0 0 0
0 0 0 0 0 0 0 0 0 0 0 0 0 0 0 0 0 0 0 0 0 0 0 0 0 0 0 0 0 0 0 0 0 0 0 0 0 0
0 0 0 0 0 0 0 0 0 0 0 0 0 0 0 0 0 0 0 0 0 0 0 0 0 0 0 0 0 0 0 0 0 0 0 0 0 0
0 0 0 0 0 0 0 0 0 0 0 0 0 0 0 0 0 0 0 0 0 0 0 0 0 0 0 0 0 0 0 0 0 0 0 0 0 0
0 0 0 0 0 0 0 0 0 0 0 0 0 0 0 0 0 0 0 0 0 0 0 0 0 0 0 0 0 0 0 0 0 0 0 0 0 0
0 0 0 0 0 0 0 0 0 0 0 0 0 0 0 0 0 0 0 0 0 0 0 0 0 0 0 0 0 0 0 0 0 0 0 0 0 0
0 0 0 0 0 0 0 0 0 0 0 0 0 0 0 0 0 0 0 0 0 0 0 0 0 0 0 0 0 0 0 0 0 0 0 0 0 0
0 0 0 0 0 0 0 0 0 0 0 0 0 0 0 0 0 0 0 0 0 0 0 0 0 0 0 0 0 0 0 0 0 0 0 0 0 0
0 0 0 0 0 0 0 0 0 0 0 0 0 0 0 0 0 0 0 0 0 0 0 0 0 0 0 0 0 0 0 0 0 0 0 0 0 0
0 0 0 0 0 0 0 0 0 0 0 0 0 0 0 0 0 0 0 0 0 0 0 0 0 0 0 0 0 0 0 0 0 0 0 0 0 0
0 0 0 0 0 0 0 0 0 0 0 0 0 0 0 0 0 0 0 0 0 0 0 0 0 0 0 0 0 0 0 0 0 0 0 0 0 0
0 0 0 0 0 0 0 0 0 0 0 0 0 0 0 0 0 0 0 0 0 0 0 0 0 0 0 0 0 0 0 0 0 0 0 0 0 0
0 0 0 0 0 0 0 0 0 0 0 0 0 0 0 0 0 0 0 0 0 0 0 0 0 0 0 0 0 0 0 0 0 0 0 0 0 0
0 0 0 0 0 0 0 0 0 0 0 0 0 0 0 0 0 0 0 0 0 0 0 0 0 0 0 0 0 0 0 0 0 0 0 0 0 0
0 0 0 0 0 0 0 0 0 0 0 0 0 0 0 0 0 0 0 0 0 0 0 0 0 0 0 0 0 0 0 0 0 0 0 0 0 0
Height
5708 5712 5716 5720 5723 5727 5730 5733 5737 5740 5744 5747 5749 5751 5752 5754 5756 5758 5760 5761 5763 5764 5765 5765 5765 5765 5766 5766 5766 5765 5764 5764 5763 5762 5761 5759 5758 5756
5694 5698 5703 5707 5710 5714 5717 5721 5724 5728 5732 5735 5737 5739 5741 5743 5745 5747 5749 5750 5752 5753 5754 5755 5755 5755 5755 5755 5755 5755 5754 5754 5753 5752 5751 5749 5748 5746
5680 5684 5689 5693 5697 5701 5704 5708 5711 5715 5719 5723 5725 5727 5730 5732 5734 5735 5737 5739 5741 5742 5743 5743 5744 5744 5744 5744 5744 5744 5744 5743 5742 5741 5740 5739 5737 5735
5667 5670 5675 5679 5683 5687 5691 5695 5698 5702 5706 5709 5713 5715 5717 5719 5722 5724 5725 5727 5729 5730 5731 5732 5732 5733 5733 5733 5733 5733 5733 5732 5731 5730 5729 5728 5726 5724
5653 5657 5661 5665 5669 5673 5677 5681 5685 5688 5692 5695 5699 5702 5705 5707 5709 5711 5713 5715 5717 5718 5719 5720 5720 5721 5722 5722 5722 5722 5721 5721 5720 5719 5717 5716 5714 5712
5639 5643 5647 5651 5655 5659 5663 5667 5671 5674 5678 5682 5686 5689 5691 5694 5696 5698 5701 5703 5704 5705 5706 5708 5708 5709 5710 5710 5711 5710 5710 5709 5708 5707 5705 5704 5702 5700
5625 5629 5633 5637 5641 5645 5649 5653 5657 5660 5664 5668 5672 5675 5678 5681 5683 5685 5687 5689 5691 5693 5694 5695 5696 5697 5697 5698 5698 5698 5697 5697 5696 5695 5693 5692 5690 5688
5611 5615 5619 5623 5628 5631 5635 5638 5642 5646 5650 5654 5658 5661 5665 5667 5669 5672 5674 5676 5679 5681 5681 5682 5683 5684 5685 5685 5685 5685 5684 5684 5683 5682 5680 5679 5677 5675
5596 5601 5605 5610 5613 5617 5621 5624 5628 5632 5636 5640 5644 5647 5651 5654 5656 5659 5661 5663 5665 5667 5667 5669 5670 5671 5672 5672 5672 5671 5671 5670 5670 5668 5667 5665 5664 5662
5582 5586 5591 5595 5599 5603 5607 5610 5614 5618 5622 5626 5631 5635 5637 5639 5642 5645 5647 5649 5651 5652 5653 5656 5657 5658 5659 5658 5658 5658 5657 5657 5656 5655 5653 5652 5650 5648
5567 5571 5576 5581 5585 5589 5593 5597 5600 5604 5607 5611 5616 5619 5622 5625 5628 5630 5632 5635 5637 5639 5640 5641 5643 5644 5645 5645 5644 5644 5643 5643 5642 5641 5639 5638 5636 5634
5552 5557 5562 5566 5570 5573 5578 5582 5586 5590 5593 5597 5600 5604 5607 5610 5613 5616 5618 5620 5622 5625 5626 5627 5628 5629 5631 5632 5631 5630 5630 5629 5628 5627 5625 5624 5621 5619
5537 5541 5546 5550 5555 5559 5563 5567 5572 5575 5578 5582 5585 5589 5592 5595 5598 5601 5603 5606 5608 5610 5612 5612 5614 5614 5615 5617 5617 5616 5615 5615 5614 5612 5611 5609 5607 5605
5522 5526 5530 5534 5539 5543 5548 5552 5556 5559 5563 5566 5570 5574 5577 5581 5583 5586 5588 5590 5592 5595 5596 5597 5598 5599 5600 5601 5602 5602 5601 5600 5599 5598 5596 5595 5592 5590
5507 5511 5514 5518 5523 5527 5532 5536 5540 5543 5547 5551 5555 5559 5562 5565 5567 5570 5572 5574 5576 5578 5580 5581 5582 5583 5584 5585 5586 5586 5586 5585 5584 5582 5581 5579 5578 5575
5491 5495 5498 5502 5506 5511 5515 5519 5523 5527 5531 5535 5539 5542 5545 5548 5551 5553 5556 5558 5561 5563 5564 5565 5566 5567 5568 5569 5570 5570 5570 5569 5569 5567 5565 5564 5562 5560
5475 5479 5483 5486 5491 5495 5499 5503 5506 5510 5514 5518 5522 5525 5528 5531 5534 5537 5539 5542 5545 5547 5549 5550 5550 5551 5552 5553 5553 5554 5554 5554 5553 5551 5550 5548 5546 5544
5459 5463 5467 5471 5475 5479 5483 5486 5490 5494 5498 5501 5505 5508 5511 5515 5518 5520 5523 5525 5528 5530 5532 5534 5535 5535 5536 5537 5538 5537 5537 5537 5536 5535 5533 5532 5531 5528
5444 5448 5452 5455 5459 5462 5466 5470 5474 5477 5481 5484 5488 5491 5495 5498 5501 5504 5506 5509 5511 5514 5516 5517 5518 5519 5520 5521 5522 5521 5520 5520 5520 5519 5517 5516 5514 5512
5430 5433 5437 5440 5443 5446 5450 5453 5457 5461 5464 5468 5471 5475 5478 5482 5485 5488 5490 5493 5495 5497 5499 5500 5502 5503 5503 5505 5505 5505 5503 5503 5503 5503 5501 5500 5498 5496
5416 5418 5421 5424 5427 5431 5434 5438 5441 5445 5448 5451 5455 5459 5462 5466 5469 5472 5474 5476 5479 5481 5483 5485 5486 5486 5486 5487 5488 5489 5488 5487 5486 5485 5485 5483 5482 5481
5402 5404 5407 5409 5412 5415 5419 5422 5426 5429 5432 5436 5439 5443 5447 5450 5453 5456 5458 5460 5463 5465 5467 5468 5469 5469 5470 5471 5472 5472 5472 5471 5470 5469 5468 5467 5466 5465
5388 5390 5393 5395 5398 5401 5404 5407 5411 5415 5418 5421 5425 5429 5432 5435 5438 5440 5442 5445 5447 5449 5450 5452 5453 5453 5454 5455 5456 5456 5456 5456 5455 5455 5454 5452 5451 5450
Wind_Speed
53 53 53 52 51 51 50 49 48 47 45 45 44 43 42 42 42 42 41 40 40 40 39 39 39 39 38 38 37 37 37 37 37 37 37 38 39 39
53 53 52 52 52 51 51 50 50 49 47 46 46 46 45 44 44 44 43 42 42 41 41 41 40 40 40 40 40 39 39 39 39 39 39 40 41 41
53 53 53 52 52 51 51 50 51 50 49 48 47 48 48 46 46 46 45 44 43 44 43 43 42 42 42 42 41 41 41 41 42 42 42 42 42 43
52 53 54 54 53 52 52 51 51 50 50 49 48 48 48 48 47 47 46 46 45 44 44 44 43 43 43 42 42 42 42 42 42 43 43 43 43 44
53 53 53 53 54 54 53 53 52 52 51 50 49 48 48 49 48 47 46 46 45 45 45 44 44 44 43 43 43 43 43 43 43 43 43 44 45 45
54 53 53 53 53 53 53 53 52 51 51 51 50 49 49 49 49 48 48 47 46 46 46 45 45 45 45 45 45 45 45 44 44 45 45 45 45 46
53 53 52 52 52 52 53 53 53 53 52 52 51 51 50 50 49 49 48 48 48 47 46 46 46 46 47 46 46 46 46 47 47 47 47 47 47 47
54 53 52 51 51 51 52 53 54 55 54 52 51 50 50 50 49 49 49 49 48 47 47 47 47 47 47 47 47 48 48 48 49 49 49 49 49 49
54 54 52 52 51 51 51 53 54 54 54 52 51 50 50 50 50 49 49 49 49 48 48 48 48 47 47 47 48 48 49 50 50 50 50 50 50 50
57 56 54 53 52 51 51 52 53 54 54 53 51 50 50 50 50 50 50 50 50 50 50 50 49 49 49 48 49 49 50 50 50 50 50 50 50 51
56 56 55 54 53 52 52 52 53 54 54 54 53 53 52 53 53 52 52 52 51 51 51 51 50 50 50 50 50 50 50 50 50 50 51 51 51 51
55 56 56 56 54 55 54 53 53 53 54 54 54 54 54 53 53 53 53 52 52 52 51 52 51 51 51 50 51 51 51 51 50 51 51 51 51 51
55 55 57 57 57 56 56 55 53 53 53 54 55 55 55 54 54 55 54 54 53 53 53 53 52 52 51 51 52 52 52 51 51 51 51 52 52 52
54 55 56 57 57 57 58 57 56 55 55 55 55 55 55 55 55 55 55 55 55 54 54 55 55 53 53 52 52 52 53 52 52 52 53 53 52 53
54 54 55 57 58 58 58 58 57 57 56 56 56 56 56 57 57 57 56 56 56 56 56 56 56 56 55 54 54 53 53 53 53 53 53 53 53 53
54 54 55 57 58 59 58 59 58 57 57 57 57 56 57 58 59 58 58 58 58 57 57 56 56 55 55 55 55 54 54 53 54 54 54 54 55 55
54 54 54 56 57 59 58 58 59 58 58 57 57 57 57 58 58 58 59 59 59 57 55 55 54 55 55 55 55 55 55 55 55 55 55 55 56 56
52 54 54 54 55 57 58 59 59 59 58 58 58 57 57 57 58 58 58 59 59 58 57 56 56 55 56 56 56 56 56 56 56 56 56 56 56 56
50 52 53 53 54 55 57 58 58 58 58 58 58 57 57 57 57 57 57 58 58 58 57 57 56 56 56 56 56 57 57 56 56 56 56 57 56 56
49 50 51 52 52 53 54 55 55 56 56 56 57 56 56 56 56 56 56 56 56 56 56 56 56 56 56 56 56 56 57 57 57 57 56 56 55 55
47 48 49 50 50 50 51 52 52 53 53 54 54 54 54 55 55 55 55 55 55 55 55 55 55 55 55 55 55 54 55 56 56 56 55 55 54 53
44 45 46 46 47 48 50 50 51 51 51 52 52 53 53 53 53 53 54 54 54 54 54 54 54 54 54 54 54 54 54 54 54 54 54 53 52 51
41 42 43 44 45 46 48 49 50 50 49 50 51 52 52 52 52 52 52 53 52 52 52 52 53 53 54 54 53 53 52 51 51 50 50 51 50 49
Wind_Direction
248 248 249 250 251 252 253 254 255 255 255 255 256 257 258 259 260 261 262 264 265 266 267 268 268 269 270 272 273 275 277 278 280 282 283 285 286 287
248 248 249 249 250 251 252 252 254 255 255 255 255 257 257 259 260 260 261 262 264 265 267 268 269 270 272 273 274 275 276 277 280 281 283 285 285 286
248 248 248 249 250 251 251 252 253 254 255 255 256 257 258 258 258 259 261 262 264 265 267 269 269 271 272 273 274 275 276 277 278 281 283 284 285 287
248 249 249 250 250 250 250 251 252 254 255 256 256 257 257 258 258 259 261 262 263 265 267 268 269 270 271 273 274 275 276 277 278 280 282 283 284 286
249 250 250 251 251 251 251 251 252 254 255 255 255 256 257 258 258 259 261 262 263 264 266 267 269 269 271 272 273 275 276 277 278 280 281 282 284 285
250 251 251 251 251 251 251 251 251 253 253 254 255 256 257 257 258 260 260 261 262 263 265 266 267 268 270 272 273 274 276 277 277 279 281 282 283 285
249 250 250 250 250 250 250 251 251 252 253 254 254 255 256 256 258 259 259 260 261 263 264 266 267 268 269 271 272 274 276 277 278 279 281 282 284 285
248 248 249 249 249 249 250 251 251 252 253 253 254 254 255 256 257 258 259 260 261 262 264 265 266 267 268 270 272 274 276 278 279 280 281 282 283 284
248 248 248 249 248 248 249 250 251 252 253 253 254 254 256 256 257 258 259 261 262 262 263 264 265 267 268 270 273 275 276 278 279 280 281 282 283 284
249 249 248 249 249 249 250 250 252 252 252 253 253 254 255 256 257 258 259 260 262 263 264 264 265 267 269 271 273 275 276 278 279 280 280 281 282 283
249 249 249 249 249 250 251 251 252 252 253 253 254 254 256 257 258 259 260 262 263 264 264 264 265 266 268 269 272 274 275 277 278 279 280 281 282 283
249 249 250 250 249 251 251 251 251 252 253 253 254 254 255 257 258 259 261 262 263 264 264 264 265 267 268 269 271 273 275 276 277 278 280 281 282 283
250 249 250 250 250 250 251 251 251 253 254 254 254 254 255 256 258 259 260 261 262 263 264 264 265 267 268 269 270 272 273 275 276 278 279 280 282 284
250 250 249 249 249 249 251 252 252 253 254 254 254 254 255 256 257 258 260 261 262 263 264 265 265 267 268 269 270 271 273 275 276 277 279 280 282 284
251 251 249 249 249 249 251 252 252 252 253 254 255 256 256 257 257 258 259 261 262 263 264 266 266 267 268 269 270 271 273 274 276 278 279 281 282 283
251 252 250 249 250 250 251 251 251 252 254 255 256 256 256 257 258 258 259 260 262 263 265 266 267 267 268 269 271 272 273 274 276 278 279 281 282 284
252 252 252 251 251 251 251 251 252 253 254 255 256 256 257 258 258 259 260 261 262 262 263 264 266 267 269 270 270 272 274 275 277 278 279 281 282 284
254 253 253 253 252 251 251 252 253 253 254 255 256 257 257 257 258 259 260 261 261 261 262 263 265 266 268 269 270 272 273 274 276 277 279 280 282 283
254 253 253 254 253 253 253 253 253 253 253 254 255 256 256 257 257 258 259 260 260 261 262 263 264 266 267 268 270 271 273 274 275 277 279 280 281 282
254 254 254 254 254 254 253 253 253 254 254 254 254 255 255 256 257 258 259 260 260 261 263 264 265 266 267 268 269 270 272 274 276 277 279 280 280 282
255 254 254 254 253 252 253 253 253 253 254 253 253 254 255 256 257 257 258 260 260 262 263 263 264 265 267 268 269 271 273 275 277 278 278 280 280 281
255 255 254 254 253 252 253 252 253 253 253 253 253 253 254 255 255 256 258 259 261 262 263 263 264 265 267 269 270 272 273 274 276 277 279 280 280 281
256 256 254 254 253 253 253 252 251 251 252 252 252 253 253 254 255 257 258 259 260 262 263 264 264 266 268 269 270 271 272 273 274 275 277 278 280 281